Flag for U.S.A. Weather past 2 weeks in Centennial, Colorado, U.S.A.

Now
68 °F

Light rain. Fog.


Feels Like: 68 °F
Forecast: 58 / 85 °F
Wind: 13 mph from Northwest

Location: Centennial Airport

Current Time: Sep 3, 2015 at 6:11:53 PM

Latest Report: Sep 3, 2015 at 4:53 PM


Visibility: 4 mi

Pressure: 29.85 "Hg (24.26 "Hg at 1781m altitude)

Humidity: 63%

Dew point: 55 °F

Location of CentennialLocation

Historic Weather in Centennial — Graph

°F

Centennial temperature yesterday

Maximum temperature yesterday: 88 °F (at 4:53 PM)
Minimum temperature yesterday: 66 °F (at 5:53 AM)
Average temperature yesterday: 76 °F

Past Weeks' High & Low Weather Summary

 TemperatureHumidityPressure
High92 °F (Aug 25, 2:53 PM)90% (Sep 1, 12:53 AM)30.21 "Hg (Sep 1, 12:53 AM)
Low48 °F (Aug 23, 5:53 AM)12% (Aug 21, 2:53 PM)29.68 "Hg (Aug 21, 4:53 PM)
Average72 °F39%29.94 "Hg
* Reported Aug 19 4:53 PM — Sep 3 4:53 PM, Centennial, Weather by CustomWeather, © 2015

Note: Actual official high and low records may vary slightly from our data, if they occured in-between our weather recording intervals... More about our weather records

Advertising

Centennial weather history for previous 24 hours

 ConditionsComfort  
Time TempWeatherWind HumidityBarometerVisibility
4:53 PM
Thu, Sep 3
68 °FLight rain. Fog.13 mph63%29.85 "Hg4 mi
3:53 PM80 °FBroken clouds.6 mph28%29.77 "Hg10 mi
2:53 PM81 °FPartly sunny.6 mph27%29.79 "Hg10 mi
1:53 PM81 °FPartly sunny.8 mph27%29.80 "Hg10 mi
12:53 PM78 °FBroken clouds.5 mph30%29.83 "Hg10 mi
11:53 AM76 °FMostly cloudy.6 mph35%29.87 "Hg10 mi
10:53 AM74 °FMostly cloudy.8 mph37%29.88 "Hg10 mi
9:53 AM74 °FMore clouds than sun.9 mph36%29.85 "Hg10 mi
8:53 AM71 °FMostly cloudy.3 mph42%29.84 "Hg10 mi
7:53 AM67 °FCloudy.No wind49%29.85 "Hg10 mi
6:53 AM65 °FPartly cloudy.3 mph51%29.83 "Hg10 mi
6:02 AM64 °FLight rain. Partly cloudy.5 mph52%30.06 "Hg10 mi
4:53 AM69 °FPassing clouds.6 mph36%29.79 "Hg10 mi
3:53 AM68 °FPassing clouds.10 mph39%29.80 "Hg10 mi
2:53 AM65 °FPassing clouds.6 mph45%29.80 "Hg10 mi
1:53 AM68 °FPassing clouds.9 mph39%29.80 "Hg10 mi
12:53 AM69 °FPassing clouds.7 mph38%29.81 "Hg10 mi
11:53 PM
Wed, Sep 2
69 °FPassing clouds.No wind39%29.82 "Hg10 mi
10:53 PM71 °FPassing clouds.8 mph35%29.84 "Hg10 mi
9:53 PM75 °FPartly cloudy.8 mph30%29.84 "Hg10 mi
8:53 PM76 °FPassing clouds.6 mph27%29.85 "Hg10 mi
7:53 PM78 °FScattered clouds.5 mph27%29.82 "Hg10 mi
6:53 PM82 °FBroken clouds.3 mph21%29.81 "Hg10 mi
Weather by CustomWeather, © 2015

See weather overviewHow to use our weather pages